{"data":{"norad_id":59417,"epoch":"2026-09-21T15:21:18.262080Z","epoch_age_seconds":66859,"freshness":"FRESH","line1":"1 59417U 24064V   26264.63979470 -.00000454  00000+0 -69893-5 0  9991","line2":"2 59417  43.0040  22.6369 0001148 272.9330  87.1390 15.27581544139022","mean_motion":15.27581544,"eccentricity":0.0001148,"inclination_deg":43.004,"raan_deg":22.6369,"arg_perigee_deg":272.933,"mean_anomaly_deg":87.139,"bstar":-6.9893e-6,"rev_number":13902,"period_min":94.266653433723,"perigee_km":482.25680911902,"apogee_km":483.83213638517,"semimajor_km":6861.1814727521,"source":"CELESTRAK","updated_at":"2026-09-22T09:00:48.918061Z"}}